GPS BIIRM-8 (PRN 05)

Last updated on Tue Sep 16 2025 00:03:16 GMT+0000 (Coordinated Universal Time)

1 35752U 09043A 25258.41601770 -.00000056 00000+0 00000+0 0 9996 2 35752 56.0324 38.2637 0054730 81.6896 288.4444 2.00570679117852
UTC large
Height (km)
Speed (km/s)
/
Latitude / Longitude
Inclination (degrees)
Orbital Period (minutes)
Azimuth
Elevation
Range (km)
Doppler Factor

Next 0 passes for location: London (51.5072 / 0.1276)

Sorry there are no passes over London.